Simultaneous Nadir Overpasses (SNOs) Predictions

Prediction of SNOs between NPP and PACE Satellite Orbit:

Table of predicted SNOs for the next 14.0 days since TLE Epoch: 10/12/2024
Index Date (NPP) Time (NPP) Lat,Lon (NPP) SZA (NPP ) Date (PACE) Time (PACE) Lat,Lon (PACE) SZA (PACE ) Distance(km) Time Diff (sec)
1 10/12/2024 16:44:20 80.01,-109.97 89.55 10/12/2024 16:45:31 80.00,-109.94 89.51 0.81 71
2 10/12/2024 17:34:58 -79.81, 59.29 90.80 10/12/2024 17:34:34 -79.81, 59.27 90.78 0.46 24
3 10/14/2024 21:10:44 79.88,-175.33 90.12 10/14/2024 21:10:33 79.88,-175.23 90.11 2.10 11
4 10/17/2024 00:46:26 -79.86, -49.10 89.14 10/17/2024 00:46:27 -79.86, -49.11 89.14 0.09 1
5 10/19/2024 04:22:11 79.93, 76.32 91.75 10/19/2024 04:22:21 79.93, 76.43 91.73 2.23 10
6 10/21/2024 07:57:52 -79.91,-157.38 87.54 10/21/2024 07:58:10 -79.90,-157.34 87.56 0.78 18
7 10/23/2024 11:33:35 79.94, -31.60 93.26 10/23/2024 11:33:58 79.93, -31.47 93.23 2.74 23
8 10/23/2024 12:24:13 -79.73, 137.63 87.08 10/23/2024 12:23:01 -79.73, 137.72 87.07 1.77 72
9 10/25/2024 15:09:16 -79.94, 94.47 86.01 10/25/2024 15:09:43 -79.93, 94.56 86.04 1.84 27



Historial Predications of SNOs between NPP and PACE
